Location: Artiguedieu
(43.5000°N, 0.5454°E)
Time: 09:46:32
(UTC+00:00)

Explorer 7 - Pass Details

Date: 05 August 2021
Orbit: 484 x 676 km, 50.3° (Epoch: 22 September)

Event Time Altitude Azimuth Distance (km) Brightness Sun altitude
Rises 03:49:26 0° 241° (WSW) 2,536 - -10.6°
Reaches altitude 10° 03:51:34 10° 242° (WSW) 1,662 - -10.3°
Exits shadow 03:52:13 15° 243° (WSW) 1,403 8.2 -10.2°
Maximum altitude 03:55:18 84° 329° (NNW) 499 6.6 -9.7°
Drops below altitude 10° 03:59:11 10° 60° (ENE) 1,717 11.0 -9.1°
Sets 04:01:26 0° 61° (ENE) 2,629 12.7 -8.8°
